Regional Weather Roundup
Issued by NWS

Home | Current Version | Previous Version | Text Only | Print | Product List | Glossary On
Versions: 1 2 3 4 5 6 7 8 9 10 11 12 13 14 15 16 17 18 19 20 21 22 23 24 25 26 27
000
ASUS45 KCYS 241010
RWRWY

WYOMING REGIONAL WEATHER ROUNDUP
NATIONAL WEATHER SERVICE CHEYENNE WY
400 AM MDT WED AUG 24 2016

NOTE:  "FAIR" INDICATES FEW OR NO CLOUDS BELOW 12,000 FEET
WITH NO SIGNIFICANT WEATHER AND/OR OBSTRUCTIONS TO VISIBILITY.

WYZ001-241100-
YELLOWSTONE NATIONAL PARK

CITY           SKY/WX    TMP DP  RH WIND       PRES   REMARKS
LK YELLOWSTONE   N/A     37  24  59 CALM      30.34F
W YELLOWSTONE  NOT AVBL

$$
WYZ002>013-054>058-071-098>099-241100-
NORTHERN WYOMING

CITY           SKY/WX    TMP DP  RH WIND       PRES   REMARKS
JACKSON        FAIR      36  23  60 N7        30.25S WCI  30
CODY           FAIR      52  37  58 N8        30.27S
GREYBULL       FAIR      57  39  51 NW13      30.16R
WORLAND        FAIR      52  37  56 S3        30.20R
SHERIDAN       FAIR      48  42  80 W5        30.22S
BUFFALO        FAIR      52  40  63 N10       30.25R
GILLETTE       FAIR      49  41  74 NW5       30.21R
HULETT         FAIR      55  41  58 CALM      30.21R
NEWCASTLE      FAIR      57  30  35 NW8       30.16S

$$
WYZ014>020-022>026-101>103-241100-
CENTRAL WYOMING

CITY           SKY/WX    TMP DP  RH WIND       PRES   REMARKS
BIG PINEY      FAIR      33  15  47 CALM      30.27S
PINEDALE       FAIR      32  21  64 W5        30.27S WCI  27
DUBOIS         FAIR      37  18  44 W8        30.29S WCI  31
LANDER         FAIR      53  25  33 SW8       30.22R
RIVERTON       FAIR      54  30  40 N8        30.23R
CASPER         FAIR      49  30  48 NW6       30.22R
DOUGLAS        FAIR      52  29  41 CALM      30.19R

$$
WYZ021-027>030-104>119-241100-
SOUTHERN WYOMING

CITY           SKY/WX    TMP DP  RH WIND       PRES   REMARKS
EVANSTON       FAIR      54  21  27 S3        30.26F
FORT BRIDGER   FAIR      52  17  25 W8        30.28F
ROCK SPRINGS   FAIR      51  19  28 NE8       30.25F
DIXON          FAIR      48  40  72 NE5       30.27S
RAWLINS        FAIR      52  23  32 NW7       30.26R
SARATOGA       FAIR      50  36  57 CALM      30.26S
LARAMIE        MOCLDY    57  39  51 S8        30.25S
CHEYENNE       FAIR      57  38  48 SW3       30.18F
TORRINGTON     FAIR      60  34  37 E12       30.11S
PINE BLUFFS    FAIR      63  36  36 SE12      30.15S

$$




USA.gov is the U.S. government's official web portal to all federal, state and local government web resources and services.